Weather History for Columbia Owens, SC

Change the Weather History Date:

Saturday, March 2, 2013

  Actual Average Record
Temperature  
Mean Temperature 42 °F 53 °F  
Max Temperature 49 °F 64 °F 80 °F (2012)
Min Temperature 34 °F 41 °F 30 °F (2005)
Degree Days  
Heating Degree Days 23 12  
Month to date heating degree days 44 25  
Since 1 July heating degree days 1702 1954  
Cooling Degree Days 0 0  
Month to date cooling degree days 0 0  
Year to date cooling degree days 24 3  
Moisture  
Dew Point 31 °F    
Average Humidity 63    
Maximum Humidity 82    
Minimum Humidity 46    
Precipitation  
Precipitation 0.00 in 0.13 in 1.06 in (2002)
Month to date precipitation 0.00 0.25  
Year to date precipitation 6.63 7.53  
Sea Level Pressure  
Sea Level Pressure 29.91 in    
Wind  
Wind Speed 3 mph (West)    
Max Wind Speed 13 mph    
Max Gust Speed 15 mph    
Visibility 10 miles    
Events      
T = Trace of Precipitation, MM = Missing Value Source: NWS Daily Summary

Daily Weather History Graph

Daily Weather History Graph

Search for Another Location

Airport:

Trip Planner

Search our weather history database for the weather conditions in past years. The results will help you decide how hot, cold, wet, or windy it might be!

Date:

Astronomy

Mar. 02, 2013 Rise Set
Actual Time 6:51 AM EST 6:21 PM EST
Civil Twilight 6:26 AM EST 6:46 PM EST
Nautical Twilight 5:57 AM EST 7:15 PM EST
Astronomical Twilight 5:28 AM EST 7:44 PM EST
Moon 11:41 PM EST (3/2) 9:34 AM EST (3/2)
Length of Visible Light 12h 20m
Length of Day
11h 30m
Waning Gibbous, 74% of the Moon is Illuminated
Mar 2
Waning Gibbous
Mar 4
Last Quarter
Mar 11
New
Mar 19
First Quarter
Mar 27
Full

Hourly Weather History & Observations

Time (EST) Temp. Windchill Dew Point Humidity Pressure Visibility Wind Dir Wind Speed Gust Speed Precip Events Conditions
12:53 AM 44.1 °F 40.1 °F 28.9 °F 55% 29.94 in 10.0 mi West 6.9 mph - N/A   Overcast
1:53 AM 43.0 °F 39.5 °F 28.9 °F 58% 29.93 in 10.0 mi West 5.8 mph - N/A   Overcast
2:53 AM 41.0 °F 38.0 °F 30.0 °F 65% 29.91 in 10.0 mi SW 4.6 mph - N/A   Mostly Cloudy
3:53 AM 39.9 °F 37.8 °F 28.9 °F 65% 29.91 in 10.0 mi WSW 3.5 mph - N/A   Overcast
4:53 AM 37.0 °F - 28.9 °F 73% 29.90 in 10.0 mi Calm Calm - N/A   Clear
5:53 AM 35.1 °F 32.2 °F 28.0 °F 76% 29.90 in 10.0 mi SW 3.5 mph - N/A   Clear
7:53 AM 36.0 °F - 30.0 °F 79% 29.91 in 10.0 mi Calm Calm - N/A   Clear
8:53 AM 37.9 °F 35.5 °F 30.0 °F 73% 29.91 in 10.0 mi WSW 3.5 mph - N/A   Overcast
9:53 AM 39.0 °F - 30.9 °F 73% 29.90 in 10.0 mi Calm Calm - N/A   Overcast
10:53 AM 43.0 °F - 30.9 °F 62% 29.91 in 10.0 mi Calm Calm - N/A   Overcast
11:53 AM 45.0 °F - 30.9 °F 58% 29.90 in 10.0 mi Calm Calm - N/A   Overcast
12:53 PM 48.0 °F - 30.0 °F 50% 29.88 in 10.0 mi North 3.5 mph - N/A   Overcast
1:53 PM 46.9 °F - 30.0 °F 52% 29.87 in 10.0 mi Calm Calm - N/A   Overcast
2:53 PM 46.9 °F - 30.0 °F 52% 29.87 in 10.0 mi NNW 3.5 mph - N/A   Overcast
3:53 PM 48.0 °F - 30.0 °F 50% 29.87 in 10.0 mi WNW 8.1 mph - N/A   Overcast
4:53 PM 48.0 °F - 28.9 °F 48% 29.88 in 10.0 mi Variable 4.6 mph - N/A   Clear
5:53 PM 46.9 °F - 30.0 °F 52% 29.89 in 10.0 mi Variable 3.5 mph - N/A   Scattered Clouds
6:53 PM 46.9 °F - 32.0 °F 56% 29.91 in 10.0 mi West 6.9 mph - N/A   Overcast
8:53 PM 44.1 °F - 35.1 °F 71% 29.94 in 10.0 mi Calm Calm - N/A   Overcast
9:53 PM 44.1 °F 42.5 °F 33.1 °F 65% 29.95 in 10.0 mi WNW 3.5 mph - N/A   Overcast
10:45 PM 42.8 °F 40.1 °F 33.8 °F 70% 29.95 in 10.0 mi North 4.6 mph - N/A   Overcast
10:53 PM 43.0 °F - 34.0 °F 71% 29.94 in 10.0 mi Calm Calm - N/A   Overcast
11:53 PM 42.1 °F - 35.1 °F 76% 29.94 in 10.0 mi Calm Calm - N/A   Overcast